GFSNW_500_rhum_240.txt.gz
RH
64 69 70 59 56 50 49 50 53 53 50 46 44 45 42 41 42 39 38 33 30 28 21 10 4 2 2 3 5 5 8 12 16 16 16 17 26 34 41 49 98 76 82 100
70 75 69 59 52 50 54 52 51 52 49 46 42 42 40 42 37 37 33 31 28 17 6 3 2 2 4 4 7 13 24 56 40 24 33 100 100 100 100 80 63 69 68 100
73 73 68 68 66 61 56 54 57 60 56 45 43 43 40 38 34 31 30 29 16 7 3 2 2 3 4 8 16 26 45 69 90 92 61 42 100 100 100 100 100 100 100 100
75 72 71 64 60 59 63 67 66 66 54 46 45 40 40 36 34 31 29 14 6 4 2 2 3 4 10 22 33 49 62 61 84 99 100 100 89 96 100 100 100 100 98 100
77 76 65 60 61 64 64 70 68 61 54 48 44 43 36 32 33 29 15 6 3 2 2 3 4 12 21 27 50 75 70 69 82 100 100 100 100 100 100 100 100 100 100 97
77 68 71 71 70 67 68 69 68 56 51 49 45 36 33 32 28 13 6 3 2 2 3 5 16 27 36 60 51 70 77 71 88 100 96 100 99 100 100 100 100 100 100 100
75 73 72 74 74 73 78 71 61 56 51 46 37 35 33 27 11 5 3 2 2 2 4 12 22 33 50 55 59 57 74 96 100 100 89 100 99 98 95 86 90 100 93 88
73 75 80 78 78 76 72 66 57 51 48 38 34 33 26 10 4 2 2 2 2 3 8 19 27 38 40 62 55 60 78 82 84 88 99 95 94 95 89 81 86 76 60 53
80 82 82 77 74 71 64 59 54 52 39 33 35 26 9 4 2 2 2 2 3 8 14 23 24 27 49 72 66 60 73 90 97 97 96 100 100 100 100 96 100 99 89 90
74 81 74 70 73 67 64 58 55 40 32 34 26 10 5 3 2 2 2 3 7 14 20 17 20 35 54 65 81 87 97 100 97 100 100 94 88 93 100 100 96 100 100 98
80 73 71 74 69 69 63 60 45 35 34 26 10 5 3 2 2 2 2 4 8 12 12 20 28 46 54 64 62 67 71 74 82 80 84 80 78 89 81 78 87 81 98 93
91 83 76 74 69 66 61 51 36 36 28 10 5 3 2 2 2 3 4 6 10 12 19 26 37 46 51 58 71 75 78 88 98 96 100 100 75 64 63 74 78 86 98 100
92 91 97 78 71 66 56 39 40 30 10 5 3 2 2 2 3 3 5 10 14 22 24 30 36 43 57 65 73 80 85 98 100 100 100 99 83 74 88 85 83 95 99 91
100 98 93 87 75 64 44 43 32 9 4 3 2 2 2 2 3 5 9 14 24 27 37 46 56 61 68 78 82 89 96 97 93 99 99 100 85 83 84 100 100 99 100 99
99 95 92 87 73 53 48 32 9 4 3 2 2 2 3 3 4 7 15 22 30 39 51 55 61 68 74 82 89 93 87 71 66 76 88 91 89 93 98 94 96 96 88 95
97 95 91 81 60 55 30 8 4 2 2 2 2 3 3 4 7 14 22 29 38 48 54 62 68 73 75 83 86 90 92 87 78 85 92 86 84 79 81 90 100 98 92 89
94 93 83 66 56 25 6 3 3 2 2 2 3 3 4 6 11 23 30 38 47 55 58 62 69 76 80 88 95 99 100 97 91 95 100 100 91 96 100 100 96 96 92 92
96 84 71 56 22 5 3 2 2 2 2 2 3 4 6 9 15 31 41 50 56 58 63 71 70 73 78 91 94 93 98 100 100 100 91 83 87 89 95 95 99 100 100 100
88 75 53 16 4 3 3 2 2 2 3 3 4 5 7 13 29 40 49 55 59 62 68 77 78 73 77 92 98 96 100 100 100 100 94 88 94 95 100 100 100 100 100 100
74 43 12 4 3 2 2 2 2 3 3 4 6 8 10 15 37 48 53 59 64 73 76 84 76 79 83 91 88 96 100 100 100 100 100 100 100 100 100 100 100 100 100 100
33 9 4 3 2 2 3 2 2 3 4 5 8 9 12 20 32 56 65 71 72 77 82 79 78 83 84 88 96 100 98 100 100 100 100 100 100 100 100 100 100 100 100 99
9 4 3 3 3 3 3 2 3 4 5 8 10 12 15 17 25 62 64 76 79 83 80 75 79 86 88 94 100 100 99 100 100 100 100 100 100 100 100 100 100 100 99 97
4 3 3 3 3 3 3 3 4 5 8 11 13 16 18 19 27 69 83 92 93 88 83 78 84 94 89 100 100 100 100 99 100 100 100 100 100 100 100 100 100 100 100 100
3 3 3 3 3 3 3 4 5 7 11 15 18 20 20 21 27 78 100 99 98 98 86 84 91 97 94 100 100 100 100 100 100 100 100 99 100 100 100 100 100 100 95 98
3 3 3 3 3 3 4 4 6 9 15 19 22 24 24 25 48 88 100 100 100 99 94 90 97 100 100 100 100 99 100 100 100 100 100 100 100 100 100 100 100 100 99 100
3 3 4 4 4 4 4 6 8 13 21 25 26 27 29 29 64 97 100 100 100 100 99 97 100 100 100 100 100 95 91 100 100 100 100 100 100 100 100 100 100 100 100 97
4 4 4 4 4 4 5 8 11 19 26 30 29 32 33 35 63 100 100 100 100 100 100 98 100 98 96 100 79 85 79 71 67 87 95 96 83 89 88 60 56 59 60 55

GFSNW_500_rhum_246.txt.gz
RH
80 70 74 73 71 64 66 72 66 66 59 59 61 62 60 60 53 51 49 46 35 25 17 8 5 3 2 2 2 3 6 9 15 26 82 100 100 100 99 77 100 96 100 97
85 85 78 74 70 70 76 76 73 67 64 63 55 62 62 55 50 50 47 39 26 16 8 5 3 2 2 2 3 5 8 26 17 19 86 100 100 100 89 90 96 100 100 100
88 89 82 81 80 73 74 74 66 64 63 65 66 60 50 48 47 47 43 29 18 9 6 3 2 2 2 3 5 8 12 17 40 90 100 95 100 100 100 87 100 99 100 98
80 78 80 73 71 69 68 64 58 55 53 52 58 57 55 52 49 47 32 20 10 6 3 2 2 2 3 5 8 13 14 18 37 97 100 93 93 100 100 99 100 100 100 93
81 78 74 72 68 71 76 71 66 64 64 62 60 59 58 51 49 38 22 10 6 3 2 2 2 2 4 8 13 15 23 30 44 76 100 65 76 72 69 70 62 66 83 91
77 81 74 66 72 74 75 69 67 68 64 65 68 66 54 51 43 26 13 7 4 2 2 2 2 4 9 12 15 20 26 35 39 46 54 78 93 92 70 78 69 62 54 58
78 76 75 72 71 75 74 71 69 71 72 76 70 58 53 46 31 15 7 4 2 2 2 2 3 6 11 17 20 25 34 45 49 58 73 83 83 87 96 97 70 78 88 86
80 76 70 65 67 69 67 67 70 75 79 74 63 57 49 38 19 8 5 3 2 2 2 3 6 9 14 20 24 33 39 47 53 61 76 76 71 95 97 73 90 100 99 100
78 74 73 69 68 69 70 70 83 83 75 67 61 55 43 20 10 6 3 2 2 2 2 4 8 13 20 26 32 39 50 55 62 74 80 76 78 81 92 89 80 75 73 79
73 78 82 82 79 82 80 82 82 76 71 64 58 47 25 10 6 4 2 2 2 2 4 8 13 17 24 33 39 47 62 73 76 89 94 91 79 75 80 79 79 81 72 77
76 73 78 81 83 79 83 81 78 77 70 60 50 29 12 6 4 3 2 2 2 3 7 13 19 24 32 40 51 57 71 73 81 83 88 88 84 84 92 77 78 70 81 72
66 62 67 77 82 83 85 80 80 71 63 54 32 15 7 4 3 2 2 2 3 5 12 18 29 35 44 49 55 72 76 86 97 100 99 100 87 88 86 78 75 80 80 85
86 72 65 80 88 88 82 82 74 66 59 38 19 7 5 3 2 2 2 2 4 10 20 27 37 47 53 60 70 72 75 90 100 98 100 100 99 92 96 86 88 92 92 86
71 81 90 83 87 92 86 80 71 63 43 19 8 5 4 3 2 2 2 3 8 20 27 32 43 48 55 60 68 79 85 96 97 95 98 100 96 97 100 100 100 100 100 88
71 64 84 97 94 90 86 78 67 46 25 9 5 4 3 2 2 2 3 5 16 28 34 41 49 56 65 69 72 83 89 88 91 90 90 93 95 96 99 100 100 100 100 100
53 73 79 94 93 92 85 73 49 27 13 6 4 3 3 2 2 3 4 8 19 32 41 50 56 62 70 74 76 93 89 85 84 91 91 89 99 99 100 100 98 96 96 95
60 75 94 93 91 88 76 56 28 12 7 5 3 3 2 2 2 3 6 11 23 37 45 53 61 72 78 79 86 99 99 92 93 91 99 100 99 99 98 98 94 92 92 89
70 81 91 92 93 83 62 37 14 6 5 4 3 3 2 2 3 6 8 12 25 38 50 55 66 75 80 84 92 96 100 98 94 98 96 96 95 92 95 96 100 99 100 100
89 91 94 94 92 63 42 20 7 5 4 3 3 3 3 3 5 7 10 13 26 46 59 67 76 81 81 86 97 100 100 100 100 100 98 94 92 97 100 100 100 100 100 100
94 96 97 92 69 50 32 8 5 4 4 3 3 3 3 4 6 9 11 16 38 53 69 75 86 88 86 95 100 100 100 100 100 100 100 100 100 100 100 100 100 100 100 100
99 100 93 76 66 36 9 6 4 4 3 3 3 3 4 6 7 11 14 19 40 60 78 86 94 93 89 99 100 98 99 100 100 100 99 98 96 97 99 100 100 100 100 100
100 99 87 73 38 12 6 5 4 4 3 3 3 4 4 6 10 15 17 21 53 85 94 100 100 92 87 97 100 100 100 100 100 100 100 96 94 96 100 100 100 99 96 97
98 99 77 35 11 6 5 4 4 4 4 4 4 5 6 9 14 17 20 27 75 93 100 100 100 94 92 99 100 98 98 100 100 100 99 98 95 98 100 100 93 72 53 51
94 60 22 10 6 6 4 4 4 4 4 4 5 5 7 12 16 22 25 47 78 100 100 100 100 100 100 100 100 96 95 97 100 100 100 100 99 100 80 54 52 49 46 42
60 26 11 6 6 4 4 4 4 4 4 5 5 7 10 14 23 30 30 49 94 100 100 100 100 100 100 100 100 95 88 90 86 95 89 75 70 62 49 46 44 46 42 37
21 8 6 6 5 5 4 4 4 5 5 6 6 8 13 21 29 35 36 45 96 100 100 100 100 100 100 100 100 100 87 86 93 81 51 35 35 40 44 43 40 36 39 41
7 6 6 5 5 5 5 5 5 6 6 6 8 12 16 26 32 37 38 45 91 100 100 100 100 100 100 100 100 100 98 80 84 74 52 42 31 31 33 31 31 33 33 35

GFSNW_500_rhum_249.txt.gz
RH
80 71 67 74 74 70 69 63 56 49 50 50 49 52 54 55 55 59 62 51 46 42 28 14 8 4 3 2 2 2 2 4 7 12 24 69 96 79 99 95 100 99 100 100
67 69 71 70 68 65 63 58 53 51 47 46 49 51 52 56 65 64 53 49 43 29 15 7 4 3 2 2 2 2 4 8 9 19 54 82 52 76 96 100 100 100 100 100
72 77 68 63 57 57 54 51 51 55 54 55 53 48 48 56 63 57 50 46 33 16 8 5 3 2 2 2 2 6 10 12 13 15 21 26 57 75 71 80 97 96 99 100
74 69 66 62 63 60 53 52 53 53 51 53 56 58 61 62 56 52 51 37 20 9 6 3 2 2 2 2 5 10 13 15 20 26 31 33 43 62 68 69 64 73 70 67
75 74 67 68 65 61 59 59 57 53 57 59 60 59 62 58 55 52 38 20 10 6 4 3 2 2 2 4 9 14 18 23 32 41 36 44 56 73 77 82 90 86 77 71
77 69 81 78 69 59 58 60 64 66 63 63 61 60 57 55 50 42 24 12 6 4 3 2 2 2 4 7 13 18 21 26 39 55 63 58 57 75 70 76 76 84 78 77
78 83 90 77 59 63 60 58 65 68 63 62 61 58 56 52 47 28 14 7 5 4 3 2 2 4 7 13 19 21 29 40 49 52 59 68 77 88 88 69 62 89 85 85
95 92 69 60 51 51 52 54 58 61 65 67 64 58 54 50 36 18 8 6 4 3 3 2 3 5 12 14 24 32 38 41 58 59 66 78 76 91 93 85 94 81 66 70
69 64 65 59 55 58 40 48 55 63 68 64 66 62 54 41 24 11 7 4 3 3 2 2 5 10 16 21 30 39 48 54 66 73 74 74 95 93 99 100 100 93 74 72
72 66 68 63 59 42 53 58 64 66 65 64 62 59 44 26 13 8 4 4 3 3 2 4 7 15 22 28 36 44 59 69 73 90 88 84 75 85 98 97 86 98 98 84
40 48 37 34 38 43 44 54 60 70 69 64 62 50 32 18 9 5 4 3 2 2 3 6 13 24 31 40 54 56 56 57 65 71 77 74 80 93 88 84 96 82 91 82
44 32 32 47 51 48 56 60 58 68 73 67 56 38 25 12 6 4 3 3 2 3 5 11 24 30 42 47 46 55 57 70 86 88 98 95 81 84 89 91 90 91 91 96
35 33 46 61 54 56 59 63 66 73 71 59 43 31 14 6 5 4 3 2 2 4 8 18 29 37 46 55 59 56 60 78 94 92 97 97 96 100 100 97 100 100 94 87
44 30 64 73 46 56 61 70 74 73 65 48 38 17 7 5 4 3 3 2 3 5 13 28 39 47 55 62 64 64 74 89 95 98 100 100 94 99 100 100 100 100 98 84
29 64 91 56 50 64 66 75 75 70 56 44 20 8 6 4 4 3 3 3 4 7 18 35 46 53 60 64 66 74 84 88 95 94 92 92 94 100 100 100 100 100 100 100
35 84 80 76 54 70 75 82 74 64 52 26 8 6 4 4 3 3 3 4 5 9 22 43 49 55 65 69 66 74 84 84 86 92 92 87 98 97 96 97 98 100 98 95
48 55 71 77 67 75 82 83 72 65 32 9 6 5 4 4 3 3 4 5 7 11 27 46 54 63 72 73 72 81 90 85 88 88 93 99 100 100 100 100 96 95 88 86
44 54 76 71 74 74 86 80 72 34 10 6 5 5 4 3 3 4 4 6 10 17 33 49 65 70 77 77 78 90 93 91 91 92 89 98 100 100 99 99 100 99 99 100
65 73 69 75 73 87 88 75 31 11 7 5 5 4 4 3 3 4 5 8 10 22 43 64 72 83 84 80 89 95 99 100 100 96 93 98 100 100 100 100 100 100 100 100
83 78 84 82 88 92 73 28 16 7 6 5 4 4 3 3 4 5 7 9 12 23 47 60 82 86 88 83 95 100 100 100 100 100 100 100 100 99 100 100 100 95 87 90
86 94 90 94 96 80 35 16 8 6 5 5 4 4 4 4 5 6 8 12 16 21 53 81 99 100 95 90 100 98 100 100 100 100 99 100 100 99 100 100 95 76 61 46
95 98 95 98 88 42 20 8 6 5 5 4 4 4 4 5 6 7 11 14 20 30 76 99 99 100 97 95 100 97 99 100 100 99 99 100 100 99 97 75 63 57 47 40
96 92 95 89 48 15 9 6 5 5 5 4 4 5 5 6 7 9 13 19 24 40 89 98 100 100 100 100 99 98 94 97 98 100 100 100 100 97 58 45 47 48 48 41
85 91 91 44 15 11 6 5 5 5 4 5 5 5 6 6 8 11 17 21 29 55 95 99 100 100 100 100 100 100 90 93 96 98 97 78 59 42 41 41 40 38 38 41
95 87 38 13 11 6 6 5 5 4 5 6 6 6 6 7 10 16 23 32 33 46 94 100 100 100 100 100 100 100 99 93 97 98 79 41 36 31 32 35 36 35 33 31
90 37 13 10 6 6 6 5 5 5 6 6 6 6 7 9 12 19 27 35 38 54 92 100 100 100 100 100 100 100 100 96 91 82 69 50 36 29 25 27 31 33 31 31
51 14 8 6 6 6 6 5 6 6 6 6 6 7 8 10 14 21 31 38 40 51 98 100 100 100 100 100 100 100 100 100 96 72 52 44 33 28 24 22 23 24 26 28

GFSNW_500_rhum_255.txt.gz
RH
63 65 65 65 67 66 59 55 53 48 47 41 36 34 31 31 30 29 31 36 41 45 43 36 28 21 12 9 7 6 4 3 3 5 8 13 17 22 24 28 34 44 52 55
66 67 70 74 72 67 61 63 51 50 46 38 35 32 30 29 30 32 34 36 41 41 39 32 26 15 12 9 6 4 3 3 5 10 14 21 29 34 42 50 48 52 60 64
70 70 72 72 76 67 57 56 52 50 46 41 37 35 34 32 30 32 32 35 42 42 35 30 14 11 10 7 4 3 3 5 9 17 24 27 37 42 47 61 68 66 73 63
78 77 74 79 78 71 64 57 52 52 47 45 42 30 23 25 31 29 31 36 39 38 33 20 13 11 8 5 3 3 5 10 17 25 30 39 53 56 60 65 71 76 77 70
86 83 86 82 84 73 62 57 50 47 33 26 20 18 26 31 30 36 38 40 37 35 25 16 12 9 5 3 3 4 9 17 25 33 39 48 59 64 63 72 76 85 92 87
89 91 95 91 86 70 59 54 55 54 28 16 20 27 26 26 35 39 41 41 38 30 18 14 10 6 4 3 4 8 16 27 33 40 50 53 64 69 72 75 77 88 77 78
96 95 93 95 88 72 71 71 65 44 20 19 33 26 25 33 40 41 41 40 33 20 17 12 7 4 3 4 6 14 25 35 45 47 56 60 77 75 70 72 74 82 91 91
98 98 95 88 75 70 68 62 55 38 16 33 32 29 34 40 45 45 40 35 22 19 13 8 5 3 3 5 11 22 35 43 51 45 52 70 85 78 75 69 87 94 94 94
97 94 87 82 61 65 48 40 47 19 29 38 30 36 38 41 50 45 39 24 20 16 9 5 3 3 4 8 23 31 41 52 53 59 69 81 85 89 84 82 94 91 84 90
96 94 88 61 51 50 38 42 42 21 36 37 41 36 41 47 45 42 33 25 18 11 5 4 3 3 5 15 27 40 57 73 82 94 96 87 90 94 92 95 88 100 94 97
98 88 85 55 46 40 43 44 31 22 33 43 42 44 51 49 45 38 28 21 14 6 4 3 3 4 7 22 39 46 58 59 66 70 73 70 87 86 89 94 100 85 88 82
98 90 86 68 46 36 40 42 24 32 40 44 47 53 53 52 44 34 24 15 7 4 4 3 3 5 10 27 41 55 60 65 72 81 81 78 84 84 83 83 75 73 78 89
98 98 100 62 41 38 44 32 30 40 42 46 60 55 51 48 39 30 17 9 5 4 3 3 4 6 15 32 46 55 67 71 86 83 92 90 82 89 86 83 85 93 92 91
98 98 67 56 61 54 41 42 56 53 39 60 57 52 53 41 31 20 9 6 4 3 3 4 4 8 23 38 51 57 73 72 85 88 95 97 92 98 96 95 96 100 98 89
99 58 72 93 72 51 58 70 66 53 62 62 50 54 46 34 25 10 6 5 4 3 4 4 6 11 27 48 56 72 78 77 92 92 93 99 96 97 95 99 99 94 90 81
50 80 100 96 69 57 69 88 70 73 66 53 58 48 38 26 10 7 5 4 4 4 4 5 7 14 32 49 69 81 82 83 95 100 95 95 98 91 90 98 99 92 80 58
89 100 93 75 67 90 77 44 82 78 60 59 54 41 31 12 7 6 5 4 4 4 5 6 10 19 35 60 72 84 85 89 92 100 100 93 94 94 98 100 99 88 65 44
100 97 94 87 99 98 80 75 79 71 65 61 44 32 13 8 6 5 4 4 4 4 6 8 14 22 52 70 85 93 88 93 90 98 99 99 95 94 96 97 94 63 60 52
100 100 89 75 100 90 74 67 76 77 67 48 35 14 8 7 6 5 4 4 4 5 7 10 20 33 66 83 95 95 90 94 91 95 97 94 93 99 99 85 56 56 54 52
100 90 99 98 82 68 72 92 86 69 54 35 17 8 7 7 5 4 4 4 4 6 8 17 28 58 87 99 99 97 97 100 98 100 95 91 88 91 95 66 51 46 44 43
99 100 100 94 62 90 93 87 74 60 44 19 8 8 7 6 5 4 4 4 5 7 11 19 35 69 93 100 100 100 100 100 99 100 100 100 100 100 81 51 48 38 36 37
98 97 98 92 98 92 79 77 66 46 17 8 8 7 6 5 5 4 4 5 7 8 15 24 45 77 93 100 100 100 100 100 99 100 100 100 98 80 50 49 44 39 31 31
100 94 100 96 96 91 87 76 47 12 8 8 8 7 6 5 4 4 4 5 7 12 17 30 48 80 96 100 100 100 100 100 100 99 100 99 85 54 39 39 40 35 31 28
98 100 99 100 94 93 81 48 12 8 8 8 8 7 6 4 4 4 5 7 9 14 22 31 48 78 97 100 100 100 100 100 100 98 96 94 88 66 36 34 33 28 27 28
100 100 100 100 96 86 58 14 9 9 9 9 8 7 6 4 4 5 6 8 12 16 23 38 40 66 94 100 100 100 100 100 100 100 93 82 78 59 37 26 28 25 24 26
100 100 100 99 91 57 15 9 9 10 10 9 8 7 5 4 5 6 8 11 14 16 20 34 39 70 96 100 100 100 100 100 100 100 100 79 72 59 34 25 22 22 24 25
100 100 100 94 62 20 10 10 11 10 10 9 8 7 5 5 6 8 10 14 15 16 20 30 42 67 94 99 100 100 99 98 100 100 100 100 88 76 60 43 28 22 22 23

GFSNW_500_rhum_258.txt.gz
RH
70 67 68 62 64 65 62 60 56 51 44 44 43 42 40 37 28 24 24 24 23 25 25 25 29 31 28 21 19 12 9 7 4 4 4 7 13 18 29 39 44 58 61 47
73 69 72 67 68 67 70 68 61 55 51 46 43 40 40 34 27 23 20 20 21 22 27 32 31 27 23 21 14 10 7 4 4 5 8 12 20 32 44 50 57 61 65 73
75 74 72 70 74 71 72 66 63 60 53 48 48 51 43 32 25 21 19 21 22 24 32 32 28 24 23 15 10 7 5 4 4 7 14 19 28 38 44 50 65 68 83 60
81 85 83 80 79 81 82 77 68 64 59 62 64 56 37 22 22 20 19 19 24 33 35 32 26 26 17 11 8 5 4 4 6 15 20 30 38 50 49 61 74 69 67 72
89 84 83 84 82 82 81 79 71 72 72 59 53 41 19 23 24 21 20 26 32 32 33 30 29 19 12 8 6 4 4 6 11 22 33 42 50 56 55 68 70 74 80 86
93 89 86 92 87 87 90 82 77 66 53 44 41 22 17 24 30 23 28 38 36 36 32 31 22 13 9 6 4 4 5 11 18 27 38 44 50 52 64 70 78 82 82 84
92 97 87 89 87 90 84 73 65 54 39 41 41 23 23 34 34 29 40 42 41 34 32 25 15 10 6 5 4 5 9 17 25 30 41 44 62 65 70 75 78 81 91 84
95 100 98 96 97 96 92 79 62 40 40 42 42 24 32 38 28 40 40 42 38 34 28 18 10 7 6 4 4 7 13 27 34 38 47 58 78 81 75 70 89 84 83 88
90 95 97 98 97 92 84 62 49 40 41 43 35 27 41 35 29 43 40 42 37 31 22 11 8 6 5 4 6 8 20 33 47 53 56 71 82 82 77 80 92 83 77 85
86 84 97 97 97 95 84 76 55 46 41 45 32 39 43 33 48 41 43 39 34 25 13 11 7 5 4 5 7 14 28 44 58 75 82 95 93 98 93 96 84 99 94 95
91 60 84 97 98 98 90 84 69 44 42 39 48 53 44 49 51 46 40 37 28 15 12 8 6 5 4 4 10 18 33 48 58 59 66 78 92 94 93 100 100 92 98 91
94 68 79 98 98 98 98 98 65 57 43 52 57 60 50 56 52 46 40 34 20 12 9 7 6 4 4 5 13 27 37 51 64 68 74 84 86 87 88 89 90 91 92 88
96 93 96 97 98 99 96 63 78 46 40 71 70 62 68 55 52 45 38 22 14 11 8 6 5 4 4 7 14 31 42 52 72 72 87 89 83 88 89 86 88 94 90 80
96 94 99 96 98 99 85 85 91 71 68 76 64 75 63 56 52 44 31 15 11 8 7 5 4 4 5 8 18 35 48 59 73 82 92 94 90 88 90 85 87 96 91 68
98 99 97 96 98 90 93 99 84 74 90 79 72 65 64 60 48 37 18 12 9 7 6 5 4 4 6 13 26 47 60 72 78 86 85 91 94 93 96 89 92 96 76 61
96 97 95 98 93 92 100 88 83 88 99 94 66 69 69 52 43 22 15 10 7 6 5 4 4 5 7 14 28 52 72 79 81 96 96 89 100 95 98 93 96 93 66 54
98 98 100 90 100 98 96 97 78 87 82 68 79 76 59 47 26 16 12 9 7 6 4 4 4 6 9 20 34 60 72 87 81 91 99 92 92 99 96 93 95 60 55 48
99 97 96 98 99 100 98 82 91 81 70 84 79 64 52 29 16 13 10 7 6 4 4 3 4 7 12 27 49 68 87 95 82 88 94 100 100 100 97 99 68 47 46 41
99 97 98 100 100 94 96 98 92 78 85 78 69 57 34 14 14 11 9 6 5 4 3 4 6 9 14 31 58 88 96 93 82 82 90 97 100 99 98 95 48 42 36 36
99 100 100 99 99 99 99 98 96 90 83 74 62 36 16 15 12 10 8 6 4 3 4 5 8 12 22 42 73 89 94 91 90 94 88 89 96 99 95 60 45 40 38 35
99 100 99 99 97 100 98 96 94 88 82 66 40 20 14 11 11 8 7 5 4 3 4 6 10 14 24 49 80 92 95 97 98 100 99 99 100 99 85 45 40 33 32 31
100 100 100 97 99 98 99 94 92 89 72 44 26 16 11 10 9 8 6 4 3 4 6 8 12 18 27 57 89 98 95 95 100 100 97 98 100 97 72 39 37 32 30 29
100 100 100 100 98 99 98 98 96 85 47 30 16 11 11 10 9 7 6 4 4 5 7 10 13 20 28 56 89 99 98 100 100 100 100 99 98 93 83 44 31 31 30 26
100 99 100 100 100 100 100 99 88 56 20 14 12 12 11 10 9 7 5 4 4 6 9 11 14 20 31 47 83 92 97 100 100 100 100 100 89 78 68 52 30 25 26 27
100 100 100 100 100 100 100 92 72 25 13 12 12 12 12 10 9 7 5 5 6 8 10 13 14 19 32 44 81 90 98 100 100 100 100 100 97 74 52 41 30 22 22 22
100 100 100 100 100 100 96 88 39 14 13 13 13 12 12 10 9 6 5 5 7 9 13 15 15 19 32 44 79 91 98 99 100 100 100 100 100 99 76 58 54 38 27 24
100 100 100 100 99 99 96 46 14 14 14 14 14 13 12 11 9 6 5 7 9 10 16 20 18 20 28 38 73 89 96 99 98 99 100 100 100 100 99 84 64 62 45 37